GFSCGP_250_spd_036.txt.gz
Wind_Speed
30 32 34 21 24 31 31 30 27 26 27 29 29 27 25 22 21 19 20 19 19 17 15 13 13 14 16 21 24 34 33 25 21 23 29 29 21 18 14 7 15 16 19 17
36 37 30 27 31 33 33 32 24 23 25 28 31 25 15 17 18 20 22 20 19 13 13 11 12 12 19 26 33 39 37 22 12 11 11 16 19 20 13 12 13 14 17 19
39 35 31 35 35 30 35 34 26 24 27 27 26 20 18 13 16 22 20 17 18 15 15 15 14 11 16 25 32 37 44 28 15 16 18 13 20 19 17 19 19 23 27 27
36 36 37 40 38 35 38 32 29 27 25 25 19 23 18 16 16 20 17 19 18 16 18 16 16 13 11 21 32 36 45 35 23 18 20 18 24 23 24 21 22 27 33 35
39 39 40 41 36 35 37 32 32 28 24 24 17 21 22 18 14 11 15 16 16 17 21 23 23 19 15 13 28 35 42 41 32 31 24 25 28 30 28 31 34 38 41 41
44 42 38 40 36 38 35 33 33 28 25 24 20 20 21 17 13 10 12 13 12 19 18 20 22 19 16 13 19 25 38 46 39 34 33 29 32 31 31 32 35 35 34 37
48 40 43 41 40 41 40 35 32 30 27 26 21 23 22 19 17 16 12 9 6 12 12 18 24 20 16 14 18 21 25 40 45 40 34 32 31 23 30 35 20 18 24 26
44 43 46 45 44 42 41 36 34 32 28 27 24 24 20 22 17 15 17 12 3 12 20 24 24 24 20 17 17 17 21 30 40 46 40 34 33 29 27 19 19 23 23 27
52 55 49 44 46 44 40 36 32 32 30 29 28 25 25 22 20 18 16 11 5 13 19 27 34 26 24 17 12 14 15 19 31 36 36 34 32 29 21 22 25 26 23 29
54 52 51 51 46 41 38 36 33 34 32 29 32 26 24 23 18 19 18 15 11 16 12 25 38 32 27 16 7 6 7 10 7 23 31 27 25 25 23 19 16 15 22 30
53 48 49 43 41 42 38 37 36 32 32 31 31 26 20 25 18 22 20 10 12 13 13 15 31 42 34 14 6 13 14 7 8 17 19 27 24 22 19 13 11 15 24 33
52 49 42 39 42 39 39 39 35 32 32 28 28 25 24 24 19 19 14 13 16 9 12 18 27 31 31 17 9 17 11 6 12 19 21 15 18 20 14 14 16 21 30 33
46 41 39 38 38 41 41 39 34 35 34 33 30 27 27 25 21 14 12 15 18 18 15 11 17 24 28 23 8 20 6 17 12 12 23 20 16 17 21 18 22 25 31 30
45 39 39 38 41 41 38 37 38 38 37 38 36 27 26 26 23 22 15 19 21 18 11 15 18 20 23 26 14 19 7 17 11 16 19 24 26 22 21 18 24 28 29 31
37 36 37 41 41 40 40 43 41 38 38 39 39 30 27 28 28 25 27 21 25 25 14 11 6 11 19 26 13 23 12 17 18 14 19 20 25 29 23 22 28 28 31 27
34 34 41 44 47 45 44 45 40 42 42 34 33 34 29 24 27 28 28 26 27 23 18 8 12 14 17 25 18 30 25 22 21 18 16 14 24 26 22 24 29 31 28 24
40 42 46 49 51 49 41 38 41 40 36 32 30 28 23 24 27 27 19 24 26 10 15 18 22 21 26 28 27 25 33 26 25 27 22 23 22 25 25 30 32 29 27 25
40 42 44 50 55 52 36 31 34 33 31 24 15 14 10 14 24 24 18 20 29 28 30 14 17 24 30 30 26 23 20 25 33 31 36 40 37 32 32 34 35 30 31 30
34 31 35 48 43 33 28 40 35 30 25 17 17 15 11 17 29 31 30 10 13 24 24 20 12 19 22 20 18 17 20 16 22 30 41 31 32 37 39 39 39 36 33 35
26 24 19 32 32 29 33 36 31 24 22 24 22 20 11 12 21 32 36 27 14 7 17 13 22 30 20 15 13 21 19 22 24 28 29 41 42 34 43 43 39 37 38 39
26 20 14 24 31 33 38 37 32 33 28 27 25 20 18 19 27 33 43 41 36 37 32 25 26 24 25 19 15 31 32 20 35 27 28 31 38 40 41 45 43 44 42 40
27 18 12 10 15 38 48 37 32 32 32 28 32 25 29 26 27 34 39 56 51 48 46 43 33 32 35 32 21 33 43 39 37 41 38 42 45 40 41 46 50 49 46 46
32 22 18 16 15 24 29 24 28 29 35 29 27 20 25 31 38 38 43 52 54 51 51 53 39 38 35 36 36 31 52 54 50 47 50 54 51 46 54 58 54 55 55 56
35 30 26 23 19 25 30 30 28 32 36 27 32 28 41 41 38 40 41 50 52 46 50 52 46 49 49 49 45 44 53 63 64 61 56 58 58 57 56 58 57 60 62 60
45 38 34 28 26 31 35 33 28 39 41 34 28 24 28 30 38 40 39 35 44 51 37 42 48 42 45 44 42 43 55 62 64 65 61 59 57 56 59 62 63 65 64 65
50 47 42 40 35 30 31 32 39 37 31 31 26 22 29 36 36 38 35 30 28 29 31 30 33 32 35 36 35 34 38 45 57 61 64 62 60 59 61 61 61 64 66 68

GFSCGP_250_spd_039.txt.gz
Wind_Speed
39 42 41 26 26 28 22 25 27 24 22 20 20 17 21 24 22 24 25 24 21 21 17 17 15 15 15 21 31 39 34 17 21 22 25 27 27 27 17 21 12 7 13 11
39 42 27 17 26 29 23 27 25 27 22 18 19 14 14 16 20 24 23 23 22 17 18 14 16 16 15 21 30 38 39 21 21 27 28 26 26 32 27 19 18 18 16 17
39 33 26 25 29 33 25 30 25 31 25 18 18 14 13 19 21 23 22 22 21 16 20 17 13 12 10 14 26 37 42 29 25 25 21 16 17 20 24 24 19 20 22 22
42 29 27 32 30 33 32 30 31 34 26 22 19 18 16 16 20 23 23 18 16 15 15 17 13 11 9 9 21 31 43 42 26 22 21 19 20 22 23 21 20 23 21 29
44 38 34 40 34 33 32 33 31 32 28 25 18 20 19 17 15 18 21 21 20 18 13 13 17 15 12 13 19 30 38 42 31 28 32 23 23 20 21 23 22 25 28 30
44 41 39 42 37 35 32 33 33 32 29 27 20 21 24 18 18 14 20 21 19 14 10 12 13 15 15 17 20 22 27 41 39 34 39 37 29 28 26 23 23 27 30 30
46 42 42 40 43 37 37 34 34 33 32 28 23 25 25 18 19 19 22 18 13 2 12 16 17 16 18 21 22 22 24 30 38 37 34 31 34 32 26 23 24 30 25 23
46 39 42 44 42 37 38 37 38 37 34 32 25 27 24 23 20 20 20 18 10 10 11 17 23 28 31 27 19 15 17 22 29 41 38 38 33 29 29 27 29 19 20 23
49 44 46 44 39 37 39 39 40 37 38 34 29 28 26 24 23 25 25 19 21 18 9 2 16 18 27 24 17 13 4 8 11 19 38 37 35 32 30 30 27 21 22 16
50 48 46 45 41 42 43 42 41 41 38 31 31 31 27 25 26 26 26 26 21 24 26 23 15 10 21 19 14 6 16 11 3 9 14 24 20 31 33 21 23 21 18 15
51 50 48 44 45 49 47 48 45 42 34 34 34 32 28 24 24 26 26 26 23 23 27 13 16 7 22 17 11 14 15 12 4 2 4 7 12 16 17 18 17 15 15 19
51 51 49 47 49 49 48 47 45 39 37 35 35 33 27 23 22 24 25 21 23 23 17 12 6 8 16 19 5 20 12 9 1 23 13 11 11 16 17 17 14 15 18 21
50 45 48 47 48 49 48 43 40 38 38 37 36 32 28 25 24 21 25 26 26 29 16 10 3 4 14 20 10 15 5 9 13 17 19 14 9 13 13 14 17 17 19 21
54 54 52 50 50 50 47 42 41 41 41 37 33 29 30 29 29 28 27 28 27 31 34 20 7 5 4 17 18 8 8 16 19 17 16 12 13 13 16 18 22 18 22 24
50 46 46 45 44 42 42 43 43 41 38 34 33 31 29 28 33 32 32 30 29 25 21 11 5 6 2 10 12 12 22 15 15 15 20 25 20 20 19 20 20 20 22 26
45 43 41 42 43 45 45 47 47 39 37 36 33 32 30 29 30 31 36 34 33 21 18 14 6 7 8 12 10 9 12 21 18 19 13 17 21 23 22 21 20 19 23 27
46 43 42 40 41 43 48 46 43 39 39 39 37 36 32 30 27 30 36 35 39 26 26 16 16 9 8 15 15 18 15 19 23 21 18 12 22 31 34 31 24 24 30 32
46 43 39 37 37 41 44 46 45 43 41 43 40 36 32 27 25 25 31 33 33 25 26 25 14 15 11 8 14 23 19 13 17 19 12 15 11 18 24 31 31 32 31 34
40 40 37 36 40 43 46 52 49 46 44 40 35 31 27 27 14 20 23 27 28 25 26 34 23 19 11 7 12 17 11 11 14 18 11 14 15 21 27 31 31 33 34 36
43 40 35 35 38 47 55 53 50 41 41 39 32 27 22 19 10 12 31 28 26 22 15 22 21 27 15 11 7 13 16 11 18 20 23 22 27 29 30 32 38 38 37 39
42 35 28 28 31 32 34 36 32 30 41 34 30 29 23 23 15 16 21 29 23 20 21 27 27 22 25 19 15 13 19 19 20 20 22 27 29 29 31 35 41 42 40 37
37 32 32 30 29 23 27 31 29 31 30 32 29 34 29 24 24 27 19 17 14 20 29 28 32 35 32 27 25 18 22 31 36 31 29 26 34 38 37 38 46 46 44 40
37 35 31 28 23 18 24 31 36 33 36 37 33 34 29 26 21 30 23 22 22 21 33 31 38 46 47 40 34 33 30 27 34 45 51 52 44 46 45 49 52 50 51 54
41 35 30 30 25 19 20 23 22 35 34 35 34 33 30 29 23 24 22 25 25 27 27 35 41 47 55 60 59 50 44 43 45 43 50 57 61 59 54 55 58 57 57 60
45 40 35 33 29 24 25 28 25 25 29 34 32 34 33 27 23 23 25 30 32 32 31 34 38 41 48 57 62 59 53 52 52 54 48 54 59 54 57 61 64 67 69 69
52 47 44 40 36 33 32 30 31 33 34 36 37 39 39 29 26 26 25 26 28 31 36 34 36 36 36 37 41 44 42 49 52 53 49 43 46 52 60 57 56 59 65 67

GFSCGP_250_spd_045.txt.gz
Wind_Speed
55 53 48 39 36 35 32 29 28 21 20 21 20 20 23 24 21 19 16 13 19 18 17 15 15 12 9 10 28 40 36 22 18 21 25 20 35 29 25 21 18 17 16 15
51 50 42 34 33 30 28 27 24 18 18 20 19 21 25 25 22 19 13 13 17 19 19 15 13 14 13 11 13 28 39 36 27 30 19 20 24 25 23 24 22 13 16 17
49 45 36 31 33 31 27 24 25 18 18 21 19 20 23 26 19 19 14 14 17 17 17 15 12 13 13 16 16 17 30 37 25 31 32 26 20 20 18 23 28 28 23 24
43 40 36 35 36 33 24 21 21 22 21 23 19 20 22 23 18 18 15 18 19 17 17 17 13 14 13 18 20 23 24 30 25 27 26 26 33 25 26 25 28 27 26 32
43 41 38 39 37 34 26 23 28 21 22 20 19 23 23 22 19 17 17 20 19 19 16 16 15 14 9 14 18 24 25 25 24 31 31 27 28 32 32 29 29 31 31 27
44 43 42 41 40 37 31 28 27 26 26 18 24 22 22 23 21 20 17 20 17 20 16 13 14 9 11 16 18 21 25 26 22 32 30 28 24 25 27 27 25 27 25 25
43 46 44 42 44 42 37 33 33 33 28 24 30 24 24 23 24 24 22 23 20 17 15 14 12 6 9 18 20 14 21 26 27 36 35 31 30 26 23 24 24 26 28 28
43 44 45 44 46 44 37 36 37 36 30 23 31 26 26 27 25 26 26 27 24 18 13 13 16 5 12 18 21 15 14 15 22 23 34 32 34 27 26 26 28 27 30 27
43 44 45 44 45 43 36 36 39 36 32 26 26 24 26 25 25 25 26 28 25 19 16 19 26 16 15 17 15 4 7 3 6 13 33 34 33 32 27 30 32 32 31 29
43 44 44 43 44 40 35 40 41 35 30 28 28 25 26 29 30 27 25 27 26 23 18 19 32 33 24 18 5 4 9 17 15 6 7 24 35 31 29 27 29 27 28 25
40 40 44 45 44 43 45 43 43 37 32 28 29 29 29 33 31 29 28 27 27 26 19 17 17 32 23 19 12 9 13 10 8 11 12 12 19 26 27 27 28 27 30 28
41 40 39 41 43 47 48 48 46 38 34 31 32 35 34 34 33 30 27 27 29 27 20 17 15 17 12 11 23 19 8 4 8 14 10 7 10 12 19 17 18 23 24 25
41 39 39 38 39 43 47 47 41 40 36 35 37 39 37 35 32 31 29 27 29 26 22 20 19 19 13 9 26 21 15 9 16 21 18 15 12 6 7 8 11 12 16 13
40 39 37 36 39 40 41 38 41 41 39 40 40 39 40 36 33 33 30 26 28 27 27 25 19 22 19 12 13 27 19 16 22 16 16 12 20 19 10 11 10 11 13 13
38 37 40 41 42 41 39 37 38 40 43 43 43 43 40 35 35 32 30 27 28 27 27 27 17 25 22 18 12 15 25 23 25 25 23 21 19 19 17 20 14 10 10 12
40 40 43 46 48 46 45 45 43 43 44 45 45 42 39 38 37 32 31 28 31 30 28 25 21 33 21 23 22 17 16 18 17 21 18 16 18 20 21 22 21 20 18 14
42 43 46 47 50 47 43 47 46 45 46 44 43 41 39 40 38 35 30 30 33 33 29 24 27 34 35 31 27 26 20 19 18 17 19 19 21 20 24 25 25 23 23 20
41 42 44 45 48 42 40 46 49 47 46 45 45 40 39 39 38 34 32 29 33 36 28 25 27 30 31 33 27 29 28 22 18 19 18 26 28 27 28 29 28 27 27 30
42 42 43 41 42 41 41 44 46 45 46 44 41 39 38 39 36 35 34 33 34 34 28 27 28 31 32 31 27 25 29 21 25 24 25 29 31 30 31 33 32 30 33 35
42 39 39 38 39 40 40 41 41 42 43 42 41 38 39 38 36 38 38 35 34 33 27 27 28 36 39 32 27 23 26 19 21 23 29 31 32 31 33 35 36 38 37 33
41 39 36 37 38 38 40 39 40 41 40 41 39 39 38 37 39 42 44 39 33 30 28 26 29 35 35 36 34 27 22 17 12 16 28 30 33 36 36 34 34 36 36 36
38 36 33 35 34 42 40 41 40 41 43 38 35 38 38 40 45 47 47 41 31 34 30 27 31 31 33 37 38 34 26 23 20 17 20 31 33 34 38 37 38 38 39 45
42 39 38 35 33 34 37 38 37 33 33 34 32 33 37 43 47 47 41 35 36 37 35 32 34 28 34 35 40 42 38 33 28 29 29 30 31 29 30 35 37 41 46 48
44 40 39 38 40 39 31 28 28 31 31 31 31 32 33 38 41 43 39 37 35 42 41 35 38 42 36 40 43 44 44 41 36 36 37 36 33 39 41 41 42 45 50 53
50 45 44 39 40 41 37 35 34 34 32 31 29 27 24 34 38 43 42 41 35 37 40 41 36 37 42 42 42 44 45 39 35 36 38 38 39 39 39 38 40 47 51 54
58 51 47 43 40 42 44 39 38 37 35 32 26 21 20 35 38 42 44 45 37 35 39 38 43 39 36 37 42 40 41 46 40 36 35 31 30 34 36 38 42 43 44 43

GFSCGP_250_spd_048.txt.gz
Wind_Speed
60 56 55 53 48 44 44 42 40 34 34 30 24 23 24 24 21 19 17 17 18 14 15 13 10 11 11 12 20 30 36 15 23 26 29 25 24 19 23 21 20 17 20 18
59 57 51 45 42 39 38 37 34 30 30 25 18 22 22 21 23 20 16 14 15 14 14 12 9 10 12 13 15 24 32 41 30 22 29 26 25 28 28 24 25 27 26 25
59 51 44 38 38 37 34 34 30 27 26 23 22 24 24 21 21 20 17 14 13 14 12 12 14 15 12 13 15 19 23 25 35 30 30 25 20 22 21 26 27 25 27 23
50 42 38 38 38 38 34 33 30 23 26 24 22 23 24 22 19 18 20 21 19 16 11 11 16 18 16 11 17 17 17 21 23 29 29 35 34 29 26 18 22 21 26 30
42 39 36 38 39 39 34 35 31 22 25 24 22 23 23 23 22 17 19 20 23 20 17 17 16 18 13 11 17 19 19 18 18 29 33 35 34 34 31 26 23 22 27 29
39 39 39 38 41 41 38 37 33 27 27 28 23 26 25 26 26 21 21 19 23 22 18 17 17 17 7 11 14 18 21 23 23 28 36 36 31 30 24 27 31 29 29 29
38 40 40 40 42 42 40 39 32 29 32 30 28 28 26 30 28 27 25 20 24 24 17 15 15 12 7 7 13 22 21 23 26 30 42 37 36 28 24 28 29 28 31 32
41 42 44 42 43 41 40 39 39 39 38 36 32 32 29 33 33 29 26 21 24 24 21 17 17 13 10 8 14 23 22 23 17 22 42 41 36 27 22 31 30 28 29 33
43 44 44 43 43 41 40 39 39 40 36 39 37 34 34 34 32 30 23 22 24 23 22 18 18 20 20 13 14 21 22 10 2 12 29 42 35 26 24 25 24 30 35 33
43 44 42 39 39 40 39 37 40 40 36 38 37 36 35 34 33 29 28 27 26 23 21 19 19 21 26 28 28 21 17 10 15 10 8 17 35 25 35 28 22 28 32 32
41 40 38 38 38 40 40 37 37 35 35 39 40 36 35 37 33 31 30 31 27 25 19 16 15 16 20 29 34 20 16 9 7 14 9 12 22 30 30 31 29 23 23 22
42 39 36 37 35 38 40 39 37 34 37 40 37 39 39 36 35 31 31 29 27 25 18 16 16 14 16 16 17 19 17 6 6 10 12 13 12 15 36 35 34 26 31 38
42 34 32 32 33 36 37 41 41 41 39 39 42 43 40 40 36 35 34 29 25 23 20 18 21 17 16 20 19 26 21 12 10 14 22 17 13 11 9 10 21 28 26 26
38 33 35 37 37 35 38 41 44 48 42 45 45 45 45 43 40 38 33 29 24 22 24 23 22 24 21 19 22 26 28 16 19 17 21 20 20 15 8 8 10 14 16 18
37 37 41 41 37 38 36 38 42 46 48 48 44 46 44 44 41 38 34 30 25 24 25 25 25 27 23 21 25 28 27 25 21 24 24 19 15 20 24 18 17 17 16 19
40 42 43 42 41 39 36 38 41 41 41 43 46 44 44 43 41 38 33 29 28 27 26 25 26 25 25 26 29 23 30 32 28 32 32 31 28 28 26 24 24 23 21 19
45 43 44 42 42 41 36 36 44 44 44 44 49 48 45 42 39 34 35 32 29 29 29 29 26 27 27 26 35 27 25 29 35 30 32 32 27 24 23 25 25 25 24 25
46 44 42 42 44 42 40 39 45 49 48 47 45 41 41 43 34 35 37 34 31 29 32 31 29 28 30 29 32 28 31 28 27 26 26 32 36 31 32 34 30 27 25 25
50 48 44 41 44 46 43 43 46 49 49 49 42 43 47 38 36 37 36 35 33 32 32 31 27 29 33 34 34 37 40 39 34 28 29 30 33 30 30 32 32 31 29 29
53 48 44 43 45 43 37 40 43 47 47 44 46 46 45 42 39 38 38 37 36 34 32 32 29 30 36 34 35 35 37 38 37 37 38 37 35 34 33 33 31 32 32 31
56 50 45 44 45 34 35 38 40 42 42 42 42 41 40 39 40 40 38 36 35 34 34 34 30 31 32 35 36 38 35 36 36 36 38 35 39 36 33 34 33 34 35 35
57 51 45 41 43 37 36 37 39 42 42 40 40 40 39 40 39 37 35 36 37 35 36 36 33 27 31 34 36 42 37 36 35 31 34 34 34 37 35 32 35 35 35 36
57 50 41 42 40 39 39 38 40 43 40 40 40 41 38 34 32 35 37 37 38 41 43 40 34 29 35 35 34 39 47 40 37 35 32 29 32 35 37 39 41 37 35 35
55 50 42 44 40 38 37 37 35 38 44 46 41 36 31 33 36 36 35 39 42 44 42 37 35 34 40 37 33 36 42 46 44 40 36 37 37 37 36 36 38 40 40 42
53 51 46 46 40 37 37 37 39 39 39 41 38 33 32 30 31 33 37 39 38 34 37 31 34 41 42 42 38 34 40 45 48 47 47 39 44 46 46 43 45 45 45 46
59 55 54 50 53 48 43 43 41 41 38 38 38 37 32 30 31 33 28 30 31 34 39 33 30 41 45 41 46 47 43 46 49 51 53 53 52 49 50 51 51 53 51 46

GFSCGP_250_spd_051.txt.gz
Wind_Speed
69 64 56 52 52 50 49 32 52 49 47 44 41 34 27 25 24 22 23 23 21 20 20 18 18 21 16 17 18 29 34 25 24 23 20 24 25 26 27 21 17 15 15 14
68 61 58 53 53 52 54 48 46 45 41 38 36 30 25 28 24 23 25 21 20 17 19 18 18 17 14 15 18 23 33 39 28 28 26 25 30 26 25 27 23 22 19 19
68 64 56 55 50 49 49 44 42 37 34 33 31 25 25 30 26 24 23 26 18 14 14 15 17 17 16 14 14 18 22 31 40 28 29 24 30 30 27 29 30 27 25 26
65 58 53 48 46 44 41 40 37 31 31 31 28 23 25 28 29 25 25 25 19 18 14 14 16 17 16 11 10 12 14 19 32 37 33 31 33 31 27 31 34 32 30 28
59 48 48 45 42 41 40 36 36 31 32 31 28 25 32 29 27 25 25 22 24 22 20 16 18 20 18 7 10 11 10 9 23 30 33 38 34 35 30 26 26 24 24 28
47 45 45 46 42 40 36 38 35 34 32 32 30 29 32 28 29 27 26 27 24 21 20 15 16 22 18 9 10 9 10 9 12 18 30 34 36 36 37 37 37 38 35 32
44 45 44 40 40 37 37 37 37 36 35 35 31 34 34 28 28 30 26 26 25 23 26 17 15 20 15 11 8 10 14 15 12 16 22 34 33 37 37 28 29 33 36 34
42 42 41 41 40 38 40 40 39 37 36 36 34 40 37 38 34 31 27 29 26 22 26 23 17 20 16 16 10 7 12 20 18 13 13 39 38 32 30 29 29 33 35 33
42 43 38 37 41 39 42 41 43 39 38 42 43 43 41 37 39 38 35 29 27 22 27 25 20 21 21 19 16 9 16 22 14 12 8 24 39 39 26 26 24 26 26 27
42 41 39 40 40 41 42 42 41 41 40 40 43 43 46 40 45 42 35 29 29 28 29 27 23 22 21 21 24 28 22 14 7 11 9 9 15 36 30 27 26 30 29 26
40 42 40 37 40 42 41 41 41 40 39 42 22 43 47 44 41 39 37 33 31 30 29 28 25 21 20 21 20 23 25 14 5 6 8 1 13 22 30 34 25 28 24 21
43 44 38 40 39 37 37 38 38 42 41 42 44 46 47 45 40 38 32 34 32 33 30 28 26 20 18 18 16 15 11 14 5 10 10 13 23 23 32 29 28 27 26 24
43 41 41 40 38 36 37 39 40 40 42 40 36 41 42 40 41 37 34 34 34 35 33 30 27 20 17 19 19 19 16 17 12 15 12 21 17 13 16 20 24 26 29 28
44 42 41 39 40 37 33 32 35 37 37 41 37 42 40 35 41 41 38 36 38 38 34 30 27 23 21 19 23 18 23 22 18 18 17 18 21 19 13 11 13 18 23 28
43 41 41 43 38 33 34 38 36 35 34 39 45 32 39 42 45 48 43 38 38 39 36 31 27 25 24 21 24 17 27 23 30 21 24 22 28 26 23 18 15 17 16 14
42 40 42 42 39 36 39 39 36 37 36 36 28 43 35 39 44 41 43 38 39 39 38 30 27 26 25 26 23 22 30 26 35 31 27 26 25 27 28 25 23 21 20 21
42 42 42 41 41 43 41 39 38 39 39 40 44 47 55 47 42 38 36 39 40 40 38 31 29 26 28 27 25 28 33 34 37 40 32 32 31 30 31 29 29 29 29 29
43 44 44 45 47 42 36 40 41 40 40 43 43 41 37 50 57 53 47 46 38 41 36 33 31 28 28 30 28 29 27 38 36 43 38 33 34 36 32 28 29 30 28 26
49 48 47 47 47 43 40 37 38 42 41 42 43 46 48 51 47 49 51 42 39 39 36 34 32 29 28 30 29 30 29 36 37 32 34 38 32 36 37 36 37 36 35 32
52 50 49 48 46 44 47 40 39 45 51 43 45 48 51 51 43 36 45 43 41 39 40 35 32 32 29 30 29 31 33 30 38 36 36 34 33 38 41 35 34 38 37 34
53 53 51 49 47 50 45 38 41 46 48 42 46 47 52 50 42 35 41 43 42 40 40 38 32 31 31 29 31 31 35 34 37 41 41 41 40 40 39 41 40 38 39 36
57 57 56 54 46 52 44 37 51 44 44 38 37 44 46 49 48 47 47 46 43 40 39 38 32 32 32 31 32 33 36 37 37 41 41 40 40 42 42 43 42 41 41 39
60 58 59 57 48 37 35 41 49 42 41 38 40 41 42 44 43 41 42 43 41 40 37 35 33 34 35 34 34 33 36 37 39 42 41 36 37 37 41 42 41 44 46 44
64 60 61 57 56 58 60 51 48 47 43 39 39 38 37 39 42 43 44 37 39 35 33 34 38 41 43 44 38 37 36 36 41 46 42 39 37 40 41 39 39 41 44 45
70 66 62 59 57 57 55 52 47 46 45 42 37 38 40 44 45 42 36 38 33 31 34 37 41 47 49 46 42 40 41 40 40 44 49 46 43 43 42 42 40 41 43 45
75 74 69 62 56 53 50 52 49 48 44 42 43 40 40 42 42 39 40 34 32 31 31 34 32 31 36 38 40 41 43 39 40 40 45 49 49 47 48 49 48 46 53 55

GFSCGP_250_spd_054.txt.gz
Wind_Speed
67 67 66 64 61 58 59 47 44 45 55 49 48 43 41 34 37 35 32 36 34 27 21 23 23 23 21 16 15 17 24 23 26 33 34 35 26 28 27 28 23 18 19 15
72 70 67 62 57 58 54 48 48 54 54 43 40 39 39 36 32 31 18 22 43 29 19 20 21 22 19 15 12 19 20 31 28 31 34 32 33 30 29 29 27 20 18 19
76 73 68 65 64 64 62 53 46 43 43 41 44 38 34 18 45 39 29 24 25 22 21 19 20 20 17 13 12 13 21 26 33 32 32 31 27 29 31 32 28 25 23 23
79 78 72 69 68 60 58 54 43 41 39 42 32 38 27 14 10 34 37 26 22 22 22 24 21 18 17 12 10 10 10 19 29 38 36 30 31 28 34 34 34 34 29 29
74 73 67 63 55 52 44 45 43 42 40 38 31 31 25 22 32 41 33 26 24 26 21 25 22 19 19 12 9 7 6 9 17 31 33 39 35 30 27 32 31 33 35 32
70 64 54 53 50 45 44 41 43 39 36 33 34 33 38 25 26 32 31 30 25 26 23 25 25 20 22 16 9 8 6 9 8 17 25 33 38 40 41 38 36 34 34 37
58 48 51 48 44 42 41 39 39 35 34 35 36 34 38 29 34 36 33 34 28 25 27 25 26 23 23 19 12 10 9 9 10 12 17 25 30 29 37 36 37 36 32 31
50 45 45 46 44 43 38 38 35 34 32 30 26 22 33 31 35 36 38 38 37 32 28 26 27 26 22 21 16 12 11 15 10 5 9 18 23 28 29 37 38 37 35 38
46 46 48 42 42 39 38 35 37 34 32 36 31 40 39 38 34 37 34 33 34 36 29 29 32 31 22 21 18 18 13 5 8 13 14 7 15 29 30 32 25 36 31 30
47 42 44 40 41 38 37 36 36 36 36 36 38 42 38 34 37 41 44 42 42 37 30 32 32 28 25 21 18 21 20 24 15 2 14 10 2 10 21 33 28 23 26 31
44 40 43 39 39 39 38 36 37 38 38 32 20 16 5 10 33 37 35 42 38 34 30 31 30 28 24 22 19 19 19 22 18 11 10 8 6 9 21 24 28 28 21 25
40 41 43 38 38 39 38 37 36 37 39 33 29 20 19 28 32 33 48 38 38 30 31 32 31 28 25 22 21 17 18 19 18 18 14 11 13 28 21 21 24 31 30 27
43 41 41 38 38 39 37 37 39 38 37 32 32 40 31 47 56 55 55 51 36 32 30 32 35 26 25 21 21 19 19 16 23 22 21 22 18 22 22 22 21 32 30 24
44 43 41 39 40 40 40 38 37 35 35 33 34 46 36 39 46 53 52 51 41 38 33 37 39 26 25 23 22 22 24 21 21 27 23 21 18 19 17 22 19 17 20 23
45 44 42 42 41 39 37 36 37 34 29 30 34 33 35 31 31 38 54 33 42 40 41 40 38 30 24 27 23 23 26 27 23 29 26 25 24 22 21 23 14 12 11 13
47 44 43 43 42 38 34 33 32 34 31 36 38 25 25 26 36 18 16 21 36 40 33 35 36 32 27 27 28 25 26 28 28 28 30 28 28 26 24 27 30 27 21 19
46 41 39 37 40 38 31 31 33 36 33 38 38 22 23 27 39 47 45 35 36 34 36 33 36 34 30 27 29 29 28 27 30 31 33 37 28 30 27 32 32 31 26 28
50 48 45 41 41 34 30 30 34 41 39 40 32 29 27 41 43 52 59 46 39 41 44 46 44 37 33 29 30 30 29 31 28 36 33 36 34 38 29 30 31 32 32 31
50 46 43 40 38 35 33 35 34 37 40 34 26 23 33 41 41 47 55 60 58 58 57 63 52 39 35 32 30 31 30 33 32 30 40 39 41 38 43 42 41 37 37 33
49 48 49 45 41 37 40 35 33 39 44 37 32 26 29 60 45 40 45 49 49 52 52 47 41 41 35 34 30 31 31 31 34 34 37 45 41 39 38 40 38 39 39 38
54 52 49 47 46 45 43 38 32 36 55 35 36 37 36 41 46 49 47 51 49 51 52 49 45 43 39 34 30 33 33 32 35 35 34 45 46 43 39 42 44 45 45 41
49 51 49 51 51 50 41 39 37 42 50 44 46 46 38 44 50 57 54 52 57 52 44 47 49 44 40 36 34 34 33 34 34 32 36 37 46 47 43 42 42 43 43 44
57 56 48 46 52 48 45 42 40 45 50 55 48 55 46 43 40 44 42 47 51 55 52 52 48 42 40 36 33 37 36 34 34 37 36 42 44 43 48 45 44 45 49 50
60 55 47 46 36 36 35 37 33 37 55 58 39 48 46 42 40 42 41 41 49 53 50 48 44 41 34 32 36 37 41 38 37 38 38 41 46 46 40 40 47 46 40 39
58 55 57 64 63 57 44 43 55 45 33 44 45 47 46 45 42 39 40 39 40 43 45 45 44 36 32 35 38 42 46 47 45 42 44 40 45 51 47 43 42 48 48 48
56 57 54 33 29 42 43 58 63 68 72 68 68 61 53 47 44 35 41 43 44 47 45 44 41 35 37 37 41 45 47 48 48 45 47 45 44 46 54 51 50 42 44 49